Location: site
(53.0000°N, 23.0500°E)
Time: 17:15:13
(UTC+01:00)

SAOCOM 1-A - Pass Details

Date: 19 January 2020
Orbit: 621 x 623 km, 97.9° (Epoch: 25 February)

Event Time Altitude Azimuth Distance (km) Brightness Sun altitude
Rises 04:30:07 0° 160° (SSE) 2,895 ? -26.4°
Reaches altitude 10° 04:32:18 10° 159° (SSE) 1,993 ? -26.1°
Enters shadow 04:36:26 76° 111° (ESE) 648 ? -25.4°
